This demonstration page uses our WeatherBlox Daily Observations layout. Learn more.

41.55636, -103.73856

Hourly Observations for April 24, 2019

Temp ( °F °C ) Dew Point ( °F °C ) Humidity (%) Winds ( mph kmh ) Pressure ( in mb ) Visibility ( mi km ) Precip ( " mm )
12:53 am 00:53 Clear 46 7.8 41 5 83 83 E 9 15 29.85 1011 10 16.09344 0 0
1:53 am 01:53 Mostly Clear 43 6.1 39 3.9 86 86 WNW 3 6 29.85 1011 10 16.09344 0 0
2:53 am 02:53 Cloudy 45 7.2 42 5.6 90 90 NNW 5 7 29.85 1011 10 16.09344 0 0
3:53 am 03:53 Mostly Cloudy 43 6.1 40 4.4 89 89 N 5 7 29.83 1010 10 16.09344 0 0
4:53 am 04:53 Mostly Clear 42 5.6 40 4.4 92 92 WNW 3 6 29.85 1011 10 16.09344 0 0
5:53 am 05:53 Clear 40 4.4 39 3.9 97 97 NW 8 13 29.85 1011 10 16.09344 0 0
6:53 am 06:53 Cloudy 44 6.7 41 5 89 89 WNW 9 15 29.85 1011 10 16.09344 0 0
7:53 am 07:53 Mostly Cloudy 46 7.8 42 5.6 86 86 WNW 7 11 29.88 1012 10 16.09344 0 0
8:53 am 08:53 Mostly Sunny 51 10.6 44 6.7 77 77 WNW 8 13 29.88 1012 10 16.09344 0 0
9:53 am 09:53 Sunny 56 13.3 44 6.7 65 65 WNW 8 13 29.88 1012 10 16.09344 0 0
10:53 am 10:53 Sunny 65 18.3 45 7.2 49 49 WNW 12 19 29.85 1011 10 16.09344 0 0
11:53 am 11:53 Mostly Sunny 70 21.1 45 7.2 41 41 W 8 13 29.83 1010 10 16.09344 0 0
12:53 pm 12:53 Sunny 73 22.8 42 5.6 33 33 W 7 11 29.8 1009 10 16.09344 0 0
1:53 pm 13:53 Sunny 73 22.8 39 3.9 29 29 Calm 29.8 1009 10 16.09344 0 0
2:53 pm 14:53 Cloudy 75 23.9 41 5 29 29 SW 8 13 29.77 1008 10 16.09344 0 0
3:53 pm 15:53 Mostly Cloudy 76 24.4 42 5.6 30 30 W 13 20 29.74 1007 10 16.09344 0 0
4:53 pm 16:53 Sunny 75 23.9 42 5.6 31 31 WSW 7 11 29.71 1006 10 16.09344 0 0
5:53 pm 17:53 Sunny 74 23.3 41 5 31 31 WSW 9 15 29.71 1006 10 16.09344 0 0
6:53 pm 18:53 Sunny 70 21.1 41 5 35 35 SSW 6 9 29.68 1005 10 16.09344 0 0
7:53 pm 19:53 Cloudy with Light Rain 59 15 51 10.6 75 75 N 36 57 29.8 1009 8 12.874752 0.001 0.001
8:53 pm 20:53 Cloudy with Light Rain 54 12.2 50 10 87 87 NNE 24 39 29.8 1009 10 16.09344 0.02 0.508
9:53 pm 21:53 Partly Cloudy 52 11.1 47 8.3 83 83 E 14 22 29.83 1010 10 16.09344 0.001 0.001
10:43 pm 22:43 Mostly Cloudy 51 10.6 48 8.9 89 89 NNE 13 20 29.88 1012 10 16.09344 0 0
10:53 pm 22:53 Mostly Cloudy 51 10.6 48 8.9 89 89 N 16 26 29.88 1012 10 16.09344 0 0
11:14 pm 23:14 Cloudy 52 11 48 9 88 88 N 17 28 29.91 1013 10 16.09344 0 0
11:26 pm 23:26 Cloudy with Light Rain 52 11 48 9 88 88 N 26 43 29.94 1014 10 16.09344 0 0
11:53 pm 23:53 Cloudy with Rain 49 9.4 46 7.8 90 90 N 26 43 29.91 1013 6 9.656064 0.06 1.524

Powered by AerisWeather